timestamp,wind_dir_avg,wind_spd_avg,wind_spd_max_dir,wind_spd_gust,battery_voltage,lat,long
2021-08-09 00:04:01+00:00,51.0,10.99,52.0,12.21,12.65,47.59359,-54.27349
2021-08-09 00:14:01+00:00,58.0,10.81,60.0,12.13,12.65,47.59359,-54.27349
2021-08-09 00:24:01+00:00,57.0,9.69,54.0,10.95,12.65,47.59359,-54.27349
2021-08-09 00:34:01+00:00,54.0,10.23,54.0,12.13,12.65,47.59359,-54.27349
2021-08-09 00:44:01+00:00,53.0,10.94,54.0,12.23,12.65,47.59359,-54.27349
2021-08-09 00:54:01+00:00,50.0,9.79,55.0,10.74,12.65,47.59359,-54.27349
2021-08-09 01:04:01+00:00,50.0,9.06,50.0,10.23,12.65,47.59359,-54.27349
2021-08-09 01:14:01+00:00,53.0,9.48,46.0,10.87,12.65,47.59359,-54.27349
2021-08-09 01:24:01+00:00,54.0,9.37,52.0,10.7,12.65,47.59359,-54.27349
2021-08-09 01:34:01+00:00,60.0,9.18,60.0,10.66,12.65,47.59359,-54.27349
2021-08-09 01:44:01+00:00,57.0,10.08,55.0,11.38,12.65,47.59359,-54.27349
2021-08-09 01:54:01+00:00,55.0,9.36,51.0,11.91,12.65,47.59359,-54.27349
2021-08-09 02:04:01+00:00,50.0,10.48,48.0,11.52,12.65,47.59359,-54.27349
2021-08-09 02:14:01+00:00,52.0,10.27,52.0,11.31,12.65,47.59359,-54.27349
2021-08-09 02:24:01+00:00,53.0,10.11,53.0,11.46,12.65,47.59359,-54.27349
2021-08-09 02:34:01+00:00,58.0,9.68,62.0,10.89,12.65,47.59359,-54.27349
2021-08-09 02:44:01+00:00,57.0,8.69,56.0,9.82,12.65,47.59359,-54.27349
2021-08-09 02:54:01+00:00,63.0,9.42,58.0,10.76,12.65,47.59359,-54.27349
2021-08-09 03:04:01+00:00,66.0,8.95,70.0,10.11,12.65,47.59359,-54.27349
2021-08-09 03:14:00+00:00,67.0,8.68,71.0,9.69,12.57,47.59359,-54.27349
2021-08-09 03:24:00+00:00,56.0,10.24,54.0,11.39,12.57,47.59359,-54.27349
2021-08-09 03:34:00+00:00,57.0,9.85,55.0,10.77,12.57,47.59359,-54.27349
2021-08-09 03:44:00+00:00,67.0,8.55,70.0,10.03,12.57,47.59359,-54.27349
2021-08-09 03:54:00+00:00,56.0,10.34,58.0,11.56,12.57,47.59359,-54.27349
2021-08-09 04:04:00+00:00,53.0,9.34,49.0,10.42,12.57,47.59359,-54.27349
2021-08-09 04:14:01+00:00,56.0,9.36,53.0,10.38,12.57,47.59359,-54.27349
2021-08-09 04:24:01+00:00,60.0,9.68,59.0,11.07,12.57,47.59359,-54.27349
2021-08-09 04:34:01+00:00,58.0,10.07,58.0,11.19,12.57,47.59359,-54.27349
2021-08-09 04:44:01+00:00,59.0,8.22,56.0,9.51,12.57,47.59359,-54.27349
2021-08-09 04:54:01+00:00,60.0,9.14,57.0,10.2,12.57,47.59359,-54.27349
2021-08-09 05:04:01+00:00,48.0,9.06,48.0,10.03,12.57,47.59359,-54.27349
2021-08-09 05:14:01+00:00,54.0,7.81,55.0,9.17,12.57,47.59359,-54.27349
2021-08-09 05:24:01+00:00,47.0,8.79,44.0,9.51,12.57,47.59359,-54.27349
2021-08-09 05:34:01+00:00,51.0,8.21,50.0,9.32,12.57,47.59359,-54.27349
2021-08-09 05:44:01+00:00,52.0,8.23,52.0,9.44,12.57,47.59359,-54.27349
2021-08-09 05:54:01+00:00,46.0,8.43,45.0,9.76,12.57,47.59359,-54.27349
2021-08-09 06:04:01+00:00,46.0,8.6,42.0,9.74,12.57,47.59359,-54.27349
2021-08-09 06:14:01+00:00,52.0,8.69,52.0,9.64,12.49,47.59359,-54.27349
2021-08-09 06:24:01+00:00,53.0,7.76,56.0,8.84,12.49,47.59359,-54.27349
2021-08-09 06:34:01+00:00,52.0,7.82,55.0,9.18,12.49,47.59359,-54.27349
2021-08-09 06:44:01+00:00,47.0,7.73,47.0,9.01,12.49,47.59359,-54.27349
2021-08-09 06:54:01+00:00,50.0,7.8,50.0,9.07,12.49,47.59359,-54.27349
2021-08-09 07:04:01+00:00,48.0,6.54,50.0,8.16,12.49,47.59359,-54.27349
2021-08-09 07:14:00+00:00,48.0,7.08,41.0,8.37,12.41,47.59359,-54.27349
2021-08-09 07:24:00+00:00,54.0,7.27,50.0,8.68,12.41,47.59359,-54.27349
2021-08-09 07:34:00+00:00,51.0,7.11,54.0,8.0,12.41,47.59359,-54.27349
2021-08-09 07:44:00+00:00,53.0,8.26,53.0,9.31,12.41,47.59359,-54.27349
2021-08-09 07:54:00+00:00,52.0,7.69,51.0,8.91,12.41,47.59359,-54.27349
2021-08-09 08:04:00+00:00,51.0,7.76,44.0,9.34,12.41,47.59359,-54.27349
2021-08-09 08:14:01+00:00,55.0,7.45,58.0,8.72,12.41,47.59359,-54.27349
2021-08-09 08:24:01+00:00,55.0,7.07,54.0,7.86,12.41,47.59359,-54.27349
2021-08-09 08:34:01+00:00,48.0,7.84,49.0,8.99,12.41,47.59359,-54.27349
2021-08-09 08:44:01+00:00,51.0,7.22,52.0,8.78,12.41,47.59359,-54.27349
2021-08-09 08:54:01+00:00,51.0,7.71,50.0,8.52,12.41,47.59359,-54.27349
2021-08-09 09:04:01+00:00,50.0,7.37,51.0,8.36,12.41,47.59359,-54.27349
2021-08-09 09:14:01+00:00,53.0,7.82,55.0,8.71,12.49,47.59359,-54.27349
2021-08-09 09:24:01+00:00,51.0,8.33,48.0,9.67,12.49,47.59359,-54.27349
2021-08-09 09:34:01+00:00,42.0,8.14,39.0,9.06,12.49,47.59359,-54.27349
2021-08-09 09:44:01+00:00,44.0,7.63,44.0,9.27,12.49,47.59359,-54.27349
2021-08-09 09:54:01+00:00,51.0,7.65,37.0,8.75,12.49,47.59359,-54.27349
2021-08-09 10:04:01+00:00,51.0,6.98,45.0,7.61,12.49,47.59359,-54.27349
2021-08-09 10:14:01+00:00,54.0,7.27,56.0,8.4,13.44,47.59359,-54.27349
2021-08-09 10:24:01+00:00,60.0,6.92,54.0,7.74,13.44,47.59359,-54.27349
2021-08-09 10:34:01+00:00,59.0,5.44,67.0,6.38,13.44,47.59359,-54.27349
2021-08-09 10:44:01+00:00,58.0,6.47,58.0,8.06,13.44,47.59359,-54.27349
2021-08-09 10:54:01+00:00,60.0,5.86,60.0,6.88,13.44,47.59359,-54.27349
2021-08-09 11:04:01+00:00,59.0,6.16,61.0,6.99,13.44,47.59359,-54.27349
2021-08-09 11:14:01+00:00,61.0,5.98,61.0,7.11,13.76,47.59359,-54.27349
2021-08-09 11:24:01+00:00,52.0,6.51,47.0,7.28,13.76,47.59359,-54.27349
2021-08-09 11:34:01+00:00,49.0,5.6,52.0,6.45,13.76,47.59359,-54.27349
2021-08-09 11:44:01+00:00,49.0,4.94,50.0,6.09,13.76,47.59359,-54.27349
2021-08-09 11:54:01+00:00,50.0,5.59,52.0,6.32,13.76,47.59359,-54.27349
2021-08-09 12:04:01+00:00,47.0,5.44,51.0,6.06,13.76,47.59359,-54.27349
2021-08-09 12:14:01+00:00,50.0,4.86,51.0,5.38,13.92,47.59359,-54.27349
2021-08-09 12:24:01+00:00,39.0,5.23,37.0,5.88,13.92,47.59359,-54.27349
2021-08-09 12:34:01+00:00,40.0,4.43,40.0,5.07,13.92,47.59359,-54.27349
2021-08-09 12:44:01+00:00,32.0,4.63,36.0,5.12,13.92,47.59359,-54.27349
2021-08-09 12:54:01+00:00,37.0,3.34,39.0,4.0,13.92,47.59359,-54.27349
2021-08-09 13:04:01+00:00,37.0,4.51,37.0,4.98,13.92,47.59359,-54.27349
2021-08-09 13:14:01+00:00,32.0,4.49,31.0,5.03,14.32,47.59359,-54.27349
2021-08-09 13:24:01+00:00,34.0,4.58,37.0,5.27,14.32,47.59359,-54.27349
2021-08-09 13:34:01+00:00,34.0,4.29,36.0,5.27,14.32,47.59359,-54.27349
2021-08-09 13:44:01+00:00,33.0,4.25,36.0,5.0,14.32,47.59359,-54.27349
2021-08-09 13:54:01+00:00,32.0,4.64,32.0,5.12,14.32,47.59359,-54.27349
2021-08-09 14:04:01+00:00,33.0,4.97,38.0,5.45,14.32,47.59359,-54.27349
2021-08-09 14:14:01+00:00,39.0,5.38,40.0,5.98,14.32,47.59359,-54.27349
2021-08-09 14:24:01+00:00,38.0,5.09,37.0,5.65,14.32,47.59359,-54.27349
2021-08-09 14:34:01+00:00,32.0,4.73,32.0,5.12,14.32,47.59359,-54.27349
2021-08-09 14:44:01+00:00,35.0,4.37,33.0,5.02,14.32,47.59359,-54.27349
2021-08-09 14:54:01+00:00,32.0,4.36,31.0,5.03,14.32,47.59359,-54.27349
2021-08-09 15:04:01+00:00,31.0,4.26,34.0,4.72,14.32,47.59359,-54.27349
2021-08-09 15:14:01+00:00,46.0,4.21,47.0,4.75,13.68,47.59359,-54.27349
2021-08-09 15:24:01+00:00,25.0,3.79,19.0,4.28,13.68,47.59359,-54.27349
2021-08-09 15:34:01+00:00,32.0,4.24,36.0,4.6,13.68,47.59359,-54.27349
2021-08-09 15:44:01+00:00,37.0,4.53,42.0,5.18,13.68,47.59359,-54.27349
2021-08-09 15:54:01+00:00,43.0,4.05,46.0,4.48,13.68,47.59359,-54.27349
2021-08-09 16:04:01+00:00,47.0,3.53,40.0,4.01,13.68,47.59359,-54.27349
2021-08-09 16:14:01+00:00,40.0,3.8,43.0,4.2,13.84,47.59359,-54.27349
2021-08-09 16:24:01+00:00,41.0,3.06,36.0,3.6,13.84,47.59359,-54.27349
2021-08-09 16:34:01+00:00,26.0,3.12,25.0,3.69,13.84,47.59359,-54.27349
2021-08-09 16:44:01+00:00,74.0,3.02,71.0,4.26,13.84,47.59359,-54.27349
2021-08-09 16:54:01+00:00,100.0,1.94,56.0,3.89,13.84,47.59359,-54.27349
2021-08-09 17:04:01+00:00,79.0,1.86,77.0,4.08,13.84,47.59359,-54.27349
2021-08-09 17:14:01+00:00,69.0,2.78,65.0,3.99,14.08,47.59359,-54.27349
2021-08-09 17:24:01+00:00,96.0,2.07,108.0,3.52,14.08,47.59359,-54.27349
2021-08-09 17:34:01+00:00,126.0,1.45,124.0,2.12,14.08,47.59359,-54.27349
2021-08-09 17:44:01+00:00,126.0,1.96,138.0,2.84,14.08,47.59359,-54.27349
2021-08-09 17:54:01+00:00,49.0,2.02,53.0,2.36,14.08,47.59359,-54.27349
2021-08-09 18:04:01+00:00,129.0,1.57,120.0,2.15,14.08,47.59359,-54.27349
2021-08-09 18:14:01+00:00,57.0,1.69,81.0,2.87,13.92,47.59359,-54.27349
2021-08-09 18:24:01+00:00,57.0,1.73,74.0,2.51,13.92,47.59359,-54.27349
2021-08-09 18:34:01+00:00,48.0,1.07,35.0,1.52,13.92,47.59359,-54.27349
2021-08-09 18:44:01+00:00,26.0,2.05,31.0,2.32,13.92,47.59359,-54.27349
2021-08-09 18:54:01+00:00,11.0,2.05,15.0,2.24,13.92,47.59359,-54.27349
2021-08-09 19:04:01+00:00,18.0,2.46,19.0,2.71,13.92,47.59359,-54.27349
2021-08-09 19:14:01+00:00,12.0,2.88,9.0,3.27,13.92,47.59359,-54.27349
2021-08-09 19:24:01+00:00,11.0,3.95,11.0,4.33,13.92,47.59359,-54.27349
2021-08-09 19:34:01+00:00,13.0,3.8,12.0,4.19,13.92,47.59359,-54.27349
2021-08-09 19:44:01+00:00,15.0,3.81,18.0,4.31,13.92,47.59359,-54.27349
2021-08-09 19:54:01+00:00,14.0,3.79,11.0,4.3,13.92,47.59359,-54.27349
2021-08-09 20:04:01+00:00,19.0,3.95,21.0,4.34,13.92,47.59359,-54.27349
2021-08-09 20:14:01+00:00,14.0,3.66,13.0,4.06,13.76,47.59359,-54.27349
2021-08-09 20:24:01+00:00,20.0,3.09,19.0,3.5,13.76,47.59359,-54.27349
2021-08-09 20:34:01+00:00,29.0,2.51,33.0,2.69,13.76,47.59359,-54.27349
2021-08-09 20:44:01+00:00,31.0,1.65,30.0,2.06,13.76,47.59359,-54.27349
2021-08-09 20:54:01+00:00,30.0,1.89,36.0,2.06,13.76,47.59359,-54.27349
2021-08-09 21:04:01+00:00,2.0,1.06,351.0,1.26,13.76,47.59359,-54.27349
2021-08-09 21:14:01+00:00,347.0,0.71,349.0,0.79,13.68,47.59359,-54.27349
2021-08-09 21:24:01+00:00,43.0,0.84,42.0,1.02,13.68,47.59359,-54.27349
2021-08-09 21:34:01+00:00,42.0,0.55,44.0,0.8,13.68,47.59359,-54.27349
2021-08-09 21:44:01+00:00,212.0,7.18,214.0,7.9,13.68,47.59359,-54.27349
2021-08-09 21:54:01+00:00,211.0,7.58,212.0,8.23,13.68,47.59359,-54.27349
2021-08-09 22:04:01+00:00,215.0,8.13,214.0,8.93,13.68,47.59359,-54.27349
2021-08-09 22:14:01+00:00,216.0,7.58,219.0,8.43,13.44,47.59359,-54.27349
2021-08-09 22:24:01+00:00,217.0,7.38,225.0,8.34,13.44,47.59359,-54.27349
2021-08-09 22:34:01+00:00,226.0,6.0,232.0,7.16,13.44,47.59359,-54.27349
2021-08-09 22:44:01+00:00,226.0,6.28,230.0,7.86,13.44,47.59359,-54.27349
2021-08-09 22:54:01+00:00,228.0,7.15,230.0,8.09,13.44,47.59359,-54.27349
2021-08-09 23:04:01+00:00,232.0,6.85,233.0,7.67,13.44,47.59359,-54.27349
2021-08-09 23:14:01+00:00,227.0,6.7,230.0,7.8,12.97,47.59359,-54.27349
2021-08-09 23:24:01+00:00,232.0,7.09,233.0,8.13,12.97,47.59359,-54.27349
2021-08-09 23:34:01+00:00,239.0,7.44,238.0,8.28,12.97,47.59359,-54.27349
2021-08-09 23:44:01+00:00,234.0,7.73,235.0,8.81,12.97,47.59359,-54.27349
2021-08-09 23:54:01+00:00,229.0,7.72,222.0,9.23,12.97,47.59359,-54.27349
